Mineral Wells, TX

6:06 PM CDT on September 20, 2017 (GMT -0500)
Mineral Wells

Weather History for KMWL - March, 2013

Change the Weather History Date:

Saturday, March 2, 2013

  Actual Average Record
Temperature  
Mean Temperature 42 °F -  
Max Temperature 57 °F 60 °F 78 °F (2006)
Min Temperature 26 °F 38 °F 16 °F (2014)
Degree Days  
Heating Degree Days 24    
Moisture  
Dew Point 27 °F    
Average Humidity 63    
Maximum Humidity 88    
Minimum Humidity 31    
Precipitation  
Precipitation 0.00 in - - ()
Sea Level Pressure  
Sea Level Pressure 30.32 in    
Wind  
Wind Speed 8 mph (West)    
Max Wind Speed 14 mph    
Max Gust Speed 18 mph    
Visibility 9 miles    
Events      
Averages and records for this station are not official NWS values.
T = Trace of Precipitation, MM = Missing Value Source: NWS Daily Summary

Daily Weather History Graph

Daily Weather History Graph

Search for Another Location

Airport or City:

Trip Planner

Search our weather history database for the weather conditions in past years. The results will help you decide how hot, cold, wet, or windy it might be!

Date:

Astronomy

Mar. 02, 2013 Rise Set
Actual Time 6:58 AM CST 6:30 PM CST
Civil Twilight 6:33 AM CST 6:55 PM CST
Nautical Twilight 6:05 AM CST 7:23 PM CST
Astronomical Twilight 5:36 AM CST 7:52 PM CST
Moon 11:50 PM CST (3/2) 9:46 AM CST (3/2)
Length of Visible Light 12h 21m
Length of Day
11h 32m
Waning Gibbous, 74% of the Moon is Illuminated
Mar 2
Waning Gibbous
Mar 4
Last Quarter
Mar 11
New
Mar 19
First Quarter
Mar 27
Full

Hourly Weather History & Observations

Time (CST) Temp. Windchill Dew Point Humidity Pressure Visibility Wind Dir Wind Speed Gust Speed Precip Events Conditions
12:53 AM 35.1 °F 25.9 °F 28.0 °F 76% 30.33 in 10.0 mi North 13.8 mph - N/A   Clear
1:53 AM 33.1 °F 25.5 °F 27.0 °F 78% 30.34 in 10.0 mi North 9.2 mph - N/A   Clear
2:53 AM 30.0 °F 24.1 °F 26.1 °F 85% 30.35 in 8.0 mi NNW 5.8 mph - N/A   Clear
3:53 AM 28.9 °F 23.9 °F 25.0 °F 85% 30.35 in 8.0 mi WNW 4.6 mph - N/A   Clear
4:53 AM 28.0 °F 21.7 °F 24.1 °F 85% 30.37 in 7.0 mi West 5.8 mph - N/A   Clear
5:53 AM 27.0 °F 21.6 °F 23.0 °F 85% 30.38 in 7.0 mi WNW 4.6 mph - N/A   Clear
6:53 AM 26.1 °F 20.5 °F 23.0 °F 88% 30.40 in 6.0 mi WNW 4.6 mph - N/A   Clear
7:53 AM 30.0 °F 24.1 °F 26.1 °F 85% 30.43 in 5.0 mi NW 5.8 mph - N/A   Clear
8:53 AM 34.0 °F - 26.1 °F 73% 30.45 in - North - - N/A   Unknown
9:53 AM - - - N/A% 30.43 in - North - - N/A   Unknown
10:53 AM - - - N/A% 30.42 in - North - - N/A   Unknown
11:53 AM - - - N/A% 30.40 in - North - - N/A   Unknown
12:53 PM - - - N/A% 30.36 in - North - - N/A   Unknown
1:53 PM - - - N/A% 30.31 in - North - - N/A   Unknown
2:53 PM - - - N/A% 30.28 in - North - - N/A   Unknown
3:53 PM 57.9 °F - 27.0 °F 31% 30.26 in 10.0 mi West 9.2 mph 18.4 mph N/A   Unknown
4:53 PM 57.0 °F - 28.0 °F 33% 30.24 in 10.0 mi WSW 6.9 mph - N/A   Clear
5:53 PM 57.0 °F - 28.0 °F 33% 30.24 in 10.0 mi Calm Calm - N/A   Clear
6:53 PM 51.8 °F - 28.4 °F 41% 30.23 in 10.0 mi South 3.5 mph - N/A   Clear
7:53 PM 48.0 °F - 28.9 °F 48% 30.23 in 10.0 mi ESE 5.8 mph - N/A   Clear
8:53 PM 45.0 °F 40.1 °F 28.9 °F 53% 30.23 in 10.0 mi SE 9.2 mph - N/A   Clear
9:53 PM 44.1 °F 38.1 °F 28.0 °F 53% 30.22 in 10.0 mi SE 11.5 mph - N/A   Clear
10:53 PM 43.0 °F 36.8 °F 26.1 °F 51% 30.21 in 10.0 mi SE 11.5 mph - N/A   Clear
11:53 PM 41.0 °F 35.2 °F 27.0 °F 57% 30.21 in 10.0 mi SSE 9.2 mph - N/A   Clear